sat.trackr.live / text

‹ back to catalog

STARLINK-34321

NORAD 64267 · 2025-120M

PAYLOAD ACTIVE UNKNOWN

§ Identity

Operator
Country
US
Launch date
2025-06-04
Launch site
AFWTR
Launch vehicle
Mass (kg)
RCS (m²)

Purposes: comms

External: N2YO · Heavens-Above · Gunter

§ Orbital elements

Epoch: 2026-09-20T13:11:39.352128Z

Period
93.85 min
Inclination
53.1600°
Eccentricity
0.0000920
Mean motion
15.34410869 rev/d
Perigee alt
462.0 km
Apogee alt
463.3 km
Semi-major
6,840.8 km
B*
5.7649e-4
RAAN
285.6570°
Arg perigee
84.4107°
Mean anomaly
275.7001°
Rev number
7,383

§ Raw data

STARLINK-343211 64267U 25120M   26263.54976102  .00019158  00000+0  57649-3 0  99952 64267  53.1600 285.6570 0000920  84.4107 275.7001 15.34410869 73834

JSON: /api/v1/satellites/64267 · /tle

For live sub-satellite position, see the globe view (requires WebGL).

§ Visibility from observer

Set your observer location to see the next 7 days of passes ≥ 10°. The values pass through the URL so the page stays shareable.

No JS? Fill the form by hand. The geolocation button needs JavaScript.